This is the latest recevied weather packets stored in our database for station/object KC8YYF. If no packets are shown the sender has not sent any weather packets the latest 10 day(s).
| Time | Temp. | Humidity | Pressure | Rain* | Wind** | Luminosity | Snow |
|---|---|---|---|---|---|---|---|
| 1777730233 | 5.56° C | 72% | 1017.1 hPa | 0 mm | - | 428 W/m² | - |
| 1777729930 | 6.11° C | 75% | 1017.1 hPa | 0 mm | - | 43 W/m² | - |
| 1777729626 | 7.22° C | 72% | 1017.1 hPa | 0 mm | - | 239 W/m² | - |
| 1777729324 | 6.67° C | 71% | 1017.2 hPa | 0 mm | - | 343 W/m² | - |
| 1777729020 | 6.11° C | 76% | 1017.1 hPa | 0 mm | - | 335 W/m² | - |
| 1777728717 | 6.11° C | 78% | 1017.3 hPa | 0 mm | - | 65 W/m² | - |
| 1777728413 | 5.56° C | 78% | 1017.2 hPa | 0 mm | - | 53 W/m² | - |
| 1777728110 | 5.56° C | 78% | 1017.2 hPa | 0 mm | - | 275 W/m² | - |
| 1777727808 | 5.56° C | 82% | 1017.2 hPa | 0 mm | - | 246 W/m² | - |
| 1777727505 | 5.56° C | 80% | 1017.3 hPa | 0 mm | - | 172 W/m² | - |
| 1777727202 | 5.56° C | 83% | 1017.1 hPa | 0 mm | - | 160 W/m² | - |
| 1777726900 | 4.44° C | 86% | 1017.1 hPa | 0 mm | - | 172 W/m² | - |
| 1777726595 | 3.89° C | 89% | 1017 hPa | 0 mm | - | 150 W/m² | - |
| 1777726293 | 3.89° C | 92% | 1017.3 hPa | 0 mm | - | 35 W/m² | - |
| 1777725989 | 3.33° C | 94% | 1017.3 hPa | 0 mm | - | 40 W/m² | - |
| 1777725687 | 2.78° C | 94% | 1017.1 hPa | 0 mm | - | 29 W/m² | - |
| 1777725385 | 2.78° C | 96% | 1017 hPa | 0 mm | - | 45 W/m² | - |
| 1777725081 | 2.22° C | 98% | 1017 hPa | 0 mm | - | 22 W/m² | - |
| 1777724778 | 2.22° C | 99% | 1017 hPa | 0 mm | - | 22 W/m² | - |
| 1777724475 | 2.22° C | 99% | 1017.2 hPa | 0 mm | - | 23 W/m² | - |
| 1777724173 | 2.22° C | 99% | 1017.1 hPa | 0 mm | - | 20 W/m² | - |
| 1777723870 | 2.22° C | 99% | 1017.1 hPa | 0 mm | - | 22 W/m² | - |
| 1777723566 | 2.22° C | 99% | 1017.1 hPa | 0 mm | - | 17 W/m² | - |
| 1777723264 | 1.67° C | 99% | 1017.2 hPa | 0 mm | - | 20 W/m² | - |
| 1777722962 | 1.67° C | 99% | 1017 hPa | 0 mm | - | 16 W/m² | - |
* Rain latest hour (hover to see other rain measurements)
** Current wind speed in m/s (hover to see current wind gust speed)